, LA

(GMT )
South Marsh 268

Weather History for KSCF - April, 2014

Change the Weather History Date:

Wednesday, April 9, 2014

  Actual Average Record
Temperature  
Mean Temperature 65 °F -  
Max Temperature 68 °F - - ()
Min Temperature 62 °F - - ()
Growing Degree Days 15 (Base 50)    
Moisture  
Dew Point 41 °F    
Average Humidity 42    
Maximum Humidity 49    
Minimum Humidity 30    
Precipitation  
Precipitation 0.00 in - - ()
Sea Level Pressure  
Sea Level Pressure 30.23 in    
Wind  
Wind Speed 10 mph (NW)    
Max Wind Speed 14 mph    
Max Gust Speed 25 mph    
Visibility 10 miles    
Events      
T = Trace of Precipitation, MM = Missing Value Source: NWS Daily Summary

Daily Weather History Graph

Daily Weather History Graph

Search for Another Location

Airport or City:

Trip Planner

Search our weather history database for the weather conditions in past years. The results will help you decide how hot, cold, wet, or windy it might be!

Date:

Astronomy

Apr. 09, 2014 Rise Set
Actual Time 6:48 AM CDT 7:30 PM CDT
Civil Twilight 6:23 AM CDT 7:54 PM CDT
Nautical Twilight 5:55 AM CDT 8:22 PM CDT
Astronomical Twilight 5:26 AM CDT 8:51 PM CDT
Moon 2:41 PM CDT (4/9) 3:13 AM CDT (4/9)
Length of Visible Light 13h 30m
Length of Day
12h 42m
Waxing Gibbous, 72% of the Moon is Illuminated
Apr 9
Waxing Gibbous
Apr 15
Full
Apr 22
Last Quarter
Apr 29
New
May 6
First Quarter

Hourly Weather History & Observations

Time (CDT) Temp. Dew Point Humidity Pressure Visibility Wind Dir Wind Speed Gust Speed Precip Events Conditions
12:15 AM 62.6 °F 42.8 °F 48% 30.16 in 10.0 mi NNW 12.7 mph - N/A   Clear
12:35 AM 62.6 °F 42.8 °F 48% 30.17 in 10.0 mi NNW 10.4 mph 21.9 mph N/A   Clear
12:55 AM 62.6 °F 41.0 °F 45% 30.17 in 10.0 mi NNW 11.5 mph 23.0 mph N/A   Clear
1:15 AM 62.6 °F 42.8 °F 48% 30.17 in 10.0 mi NNW 12.7 mph 25.3 mph N/A   Clear
1:35 AM 62.6 °F 41.0 °F 45% 30.18 in 10.0 mi North 12.7 mph 19.6 mph N/A   Clear
1:55 AM 62.6 °F 41.0 °F 45% 30.18 in 10.0 mi NNW 13.8 mph 24.2 mph N/A   Clear
2:15 AM 62.6 °F 41.0 °F 45% 30.18 in 10.0 mi NNW 11.5 mph 21.9 mph N/A   Clear
2:35 AM 62.6 °F 41.0 °F 45% 30.18 in 10.0 mi North 12.7 mph 21.9 mph N/A   Clear
2:55 AM 62.6 °F 41.0 °F 45% 30.18 in 10.0 mi North 10.4 mph 20.7 mph N/A   Partly Cloudy
3:15 AM 62.6 °F 41.0 °F 45% 30.18 in 10.0 mi NNW 10.4 mph 18.4 mph N/A   Partly Cloudy
3:35 AM 62.6 °F 41.0 °F 45% 30.19 in 10.0 mi North 9.2 mph 17.3 mph N/A   Clear
3:55 AM 62.6 °F 41.0 °F 45% 30.18 in 10.0 mi North 9.2 mph - N/A   Clear
4:15 AM 62.6 °F 41.0 °F 45% 30.18 in 10.0 mi North 8.1 mph 13.8 mph N/A   Clear
4:35 AM 62.6 °F 41.0 °F 45% 30.18 in 10.0 mi NNW 9.2 mph 18.4 mph N/A   Clear
4:55 AM 62.6 °F 39.2 °F 42% 30.18 in 10.0 mi Variable 5.8 mph 15.0 mph N/A   Clear
5:15 AM 62.6 °F 39.2 °F 42% 30.19 in 10.0 mi North 6.9 mph 15.0 mph N/A   Scattered Clouds
5:35 AM 62.6 °F 39.2 °F 42% 30.19 in 10.0 mi NNW 11.5 mph 19.6 mph N/A   Scattered Clouds
5:55 AM 62.6 °F 39.2 °F 42% 30.20 in 10.0 mi NNW 8.1 mph 20.7 mph N/A   Partly Cloudy
6:15 AM 62.6 °F 39.2 °F 42% 30.21 in 10.0 mi North 8.1 mph 18.4 mph N/A   Clear
6:35 AM 62.6 °F 39.2 °F 42% 30.21 in 10.0 mi Variable 6.9 mph 16.1 mph N/A   Clear
6:55 AM 62.6 °F 41.0 °F 45% 30.21 in 10.0 mi North 9.2 mph - N/A   Clear
7:15 AM 62.6 °F 39.2 °F 42% 30.22 in 10.0 mi Variable 6.9 mph 18.4 mph N/A   Clear
7:35 AM 62.6 °F 39.2 °F 42% 30.23 in 10.0 mi North 11.5 mph - N/A   Clear
7:55 AM 62.6 °F 41.0 °F 45% 30.23 in 10.0 mi North 11.5 mph - N/A   Clear
8:15 AM 62.6 °F 41.0 °F 45% 30.23 in 10.0 mi North 11.5 mph - N/A   Clear
8:35 AM 62.6 °F 41.0 °F 45% 30.24 in 10.0 mi North 13.8 mph - N/A   Clear
8:55 AM 62.6 °F 41.0 °F 45% 30.25 in 10.0 mi North 11.5 mph - N/A   Clear
9:15 AM 62.6 °F 41.0 °F 45% 30.26 in 10.0 mi North 10.4 mph - N/A   Clear
9:35 AM 62.6 °F 42.8 °F 48% 30.27 in 10.0 mi North 12.7 mph - N/A   Clear
9:55 AM 62.6 °F 42.8 °F 48% 30.28 in 10.0 mi North 10.4 mph - N/A   Clear
10:15 AM 62.6 °F 41.0 °F 45% 30.28 in 10.0 mi North 9.2 mph - N/A   Clear
10:35 AM 62.6 °F 42.8 °F 48% 30.29 in 10.0 mi NNE 10.4 mph - N/A   Clear
10:55 AM 62.6 °F 42.8 °F 48% 30.30 in 10.0 mi North 9.2 mph - N/A   Clear
11:15 AM 64.4 °F 41.0 °F 42% 30.30 in - North 9.2 mph - N/A   Clear
11:35 AM 64.4 °F 42.8 °F 45% 30.29 in 10.0 mi North 9.2 mph - N/A   Clear
11:55 AM 64.4 °F 41.0 °F 42% 30.30 in 10.0 mi North 6.9 mph - N/A   Clear
12:15 PM 64.4 °F 41.0 °F 42% 30.29 in 10.0 mi Variable 5.8 mph - N/A   Clear
12:35 PM 66.2 °F 41.0 °F 40% 30.29 in 10.0 mi NNW 4.6 mph - N/A   Clear
12:55 PM 66.2 °F 39.2 °F 37% 30.29 in 10.0 mi Variable 3.5 mph - N/A   Clear
1:15 PM 66.2 °F 39.2 °F 37% 30.28 in 10.0 mi NW 8.1 mph - N/A   Clear
1:35 PM 66.2 °F 35.6 °F 32% 30.27 in 10.0 mi WNW 6.9 mph - N/A   Clear
1:55 PM 66.2 °F 37.4 °F 35% 30.27 in 10.0 mi WNW 6.9 mph - N/A   Clear
2:15 PM 68.0 °F 37.4 °F 33% 30.26 in 10.0 mi Variable 5.8 mph - N/A   Clear
2:35 PM 68.0 °F 35.6 °F 30% 30.25 in 10.0 mi NW 5.8 mph - N/A   Clear
2:55 PM 66.2 °F 35.6 °F 32% 30.25 in 10.0 mi WNW 5.8 mph - N/A   Clear
3:15 PM 66.2 °F 35.6 °F 32% 30.24 in 10.0 mi WNW 5.8 mph - N/A   Clear
3:35 PM 66.2 °F 37.4 °F 35% 30.24 in 10.0 mi WNW 8.1 mph - N/A   Clear
3:55 PM 68.0 °F 37.4 °F 33% 30.23 in 10.0 mi Variable 3.5 mph - N/A   Clear
4:15 PM 66.2 °F 37.4 °F 35% 30.22 in 10.0 mi West 6.9 mph - N/A   Clear
4:35 PM 66.2 °F 39.2 °F 37% 30.22 in 10.0 mi WSW 6.9 mph - N/A   Clear
4:55 PM 68.0 °F 37.4 °F 33% 30.22 in 10.0 mi WSW 6.9 mph - N/A   Clear
5:15 PM 66.2 °F 39.2 °F 37% 30.21 in 10.0 mi WSW 8.1 mph - N/A   Clear
5:35 PM 66.2 °F 39.2 °F 37% 30.21 in 10.0 mi WSW 8.1 mph - N/A   Clear
5:55 PM 66.2 °F 39.2 °F 37% 30.21 in 10.0 mi WSW 8.1 mph - N/A   Clear
6:15 PM 66.2 °F 39.2 °F 37% 30.21 in 10.0 mi WSW 6.9 mph - N/A   Clear
6:35 PM 66.2 °F 41.0 °F 40% 30.21 in 10.0 mi WSW 10.4 mph - N/A   Clear
6:55 PM 66.2 °F 39.2 °F 37% 30.20 in 10.0 mi SW 10.4 mph - N/A   Clear
7:15 PM 64.4 °F 41.0 °F 42% 30.21 in 10.0 mi WSW 10.4 mph - N/A   Clear
7:35 PM 64.4 °F 41.0 °F 42% 30.21 in 10.0 mi WSW 9.2 mph - N/A   Clear
7:55 PM 64.4 °F 41.0 °F 42% 30.21 in 10.0 mi WSW 9.2 mph - N/A   Clear
8:15 PM 64.4 °F 39.2 °F 40% 30.22 in 10.0 mi WSW 8.1 mph - N/A   Clear
8:35 PM 64.4 °F 41.0 °F 42% 30.22 in 10.0 mi WSW 8.1 mph - N/A   Clear
8:55 PM 64.4 °F 42.8 °F 45% 30.22 in 10.0 mi WSW 8.1 mph - N/A   Clear
9:15 PM 64.4 °F 42.8 °F 45% 30.23 in 10.0 mi WSW 10.4 mph - N/A   Clear
9:35 PM 64.4 °F 42.8 °F 45% 30.24 in 10.0 mi WSW 11.5 mph - N/A   Clear
9:55 PM 64.4 °F 44.6 °F 49% 30.24 in 10.0 mi SW 9.2 mph - N/A   Clear
10:15 PM 64.4 °F 42.8 °F 45% 30.24 in 10.0 mi SW 6.9 mph 13.8 mph N/A   Clear
10:35 PM 64.4 °F 44.6 °F 49% 30.24 in 10.0 mi SW 10.4 mph - N/A   Clear
10:55 PM 64.4 °F 44.6 °F 49% 30.24 in 10.0 mi SW 10.4 mph - N/A   Clear
11:15 PM 64.4 °F 44.6 °F 49% 30.24 in 10.0 mi Variable 5.8 mph 13.8 mph N/A   Clear
11:35 PM 64.4 °F 44.6 °F 49% 30.24 in 10.0 mi SW 10.4 mph - N/A   Clear
11:55 PM 64.4 °F 44.6 °F 49% 30.24 in 10.0 mi SW 10.4 mph - N/A   Clear